User: anonymous   Login
Location: Eaton
(41.3139°N, 82.0207°W)
Time: 15:29:03
(UTC+00:00)
Language:

Cosmos 1408 Rocket - Orbit

View from above orbital plane
View from above orbital plane
View from above satellite
View from above satellite

Ground track
Ground track

The orbit data is extracted from the following two-line orbital elements,

1 13553U 82092B   21263.14296434  .00000082  00000-0  68578-5 0  9994
2 13553  82.5690 224.2248 0020044 305.1531  65.2151 14.84290243107837
Epoch (UTC): 20 September 2021 03:25:52
Eccentricity: 0.0020044
inclination: 82.5690°
perigee height: 602 km
apogee height: 630 km
right ascension of ascending node: 224.2248°
argument of perigee: 305.1531°
revolutions per day: 14.84290243
mean anomaly at epoch: 65.2151°
orbit number at epoch: 10783

The dashed part of the orbit path shows where the satellite is in the earth's shadow,  

DLR